Temp
62 62 62 62 61 61 61 61 61 62 62 62 63 63 63 63 63 80 88 85 88 76 75 99 100 100 101 98 102 102 86 83 87 89 90 97 95 101 101 98 99 100 98 97 100
61 62 61 61 61 61 61 61 61 62 62 62 63 63 63 63 81 92 79 78 77 77 93 95 95 98 95 95 98 92 85 86 96 96 93 95 94 96 96 96 82 89 97 98 99
61 61 61 61 61 61 61 61 62 62 62 63 63 62 62 68 83 92 76 78 75 79 98 99 99 96 92 97 95 93 85 94 94 95 96 94 94 97 95 90 93 91 92 95 92
61 61 61 61 61 61 61 61 62 63 63 62 62 62 63 80 78 93 78 76 76 90 98 96 95 91 89 89 96 88 93 95 97 96 93 92 97 93 95 93 99 99 99 99 93
60 60 60 60 60 60 61 61 61 62 62 62 62 63 75 85 90 94 77 79 93 96 95 94 92 92 87 92 93 88 91 95 96 96 94 96 91 93 94 99 101 99 98 97 96
60 60 60 60 60 60 60 60 60 61 61 62 63 62 80 82 100 100 98 95 98 97 96 97 94 95 91 89 88 92 92 93 93 94 94 90 91 93 96 100 99 99 95 94 94
59 59 59 59 60 60 60 59 59 60 61 62 64 79 86 88 102 102 99 99 99 97 93 96 97 92 92 87 94 90 84 89 91 92 91 92 85 87 96 97 96 95 90 88 87
59 59 59 59 59 59 59 59 58 60 61 63 64 83 86 100 105 99 101 97 99 99 97 97 98 94 91 93 88 85 85 79 89 90 91 88 78 87 93 93 93 88 85 82 79
59 58 58 59 59 59 58 58 61 61 62 65 78 86 85 85 95 100 101 95 97 97 97 96 96 91 90 84 81 83 76 79 82 90 89 87 80 85 91 91 90 84 85 81 77
58 58 58 58 58 58 57 58 61 61 69 85 90 84 92 89 96 97 101 98 93 93 90 90 90 85 86 84 73 76 77 79 78 85 85 83 78 83 88 90 86 84 81 78 74
58 57 57 58 58 57 63 82 82 81 88 87 88 86 91 97 99 95 98 95 94 89 81 87 82 78 82 84 83 81 79 77 82 86 81 77 75 75 82 83 80 79 77 74 72
57 57 57 57 57 56 70 89 89 92 82 92 90 90 93 96 87 92 98 88 85 81 85 82 77 84 85 83 80 79 77 77 82 85 82 76 69 69 71 72 76 75 76 75 72
56 56 57 57 56 66 90 91 99 97 82 86 91 90 91 95 87 88 94 90 84 80 81 78 82 84 81 80 77 78 77 77 77 81 82 76 67 66 68 72 73 75 75 75 73
56 56 56 55 65 96 90 96 100 96 75 78 83 88 91 93 84 94 96 90 85 80 81 82 85 81 80 78 79 74 81 78 77 74 68 78 63 66 68 69 72 72 74 73 73
56 56 56 53 80 90 93 100 101 91 59 82 86 100 95 87 88 87 96 90 81 81 82 77 78 78 77 78 80 75 81 79 78 75 73 72 67 68 68 64 67 69 71 72 73
55 56 55 71 82 96 100 98 91 70 59 76 86 83 83 86 86 89 88 92 90 81 82 81 86 83 81 81 81 82 78 78 78 75 64 72 69 59 62 68 67 70 71 70 72
55 55 57 82 89 100 99 90 70 63 81 75 78 83 82 80 81 82 80 78 75 69 71 76 79 82 83 77 82 79 73 63 61 61 58 70 68 63 69 70 68 66 66 67 68
54 53 66 88 95 94 90 78 60 73 75 82 82 82 77 82 81 80 77 75 79 77 73 70 65 76 80 77 74 75 72 63 52 57 63 71 63 61 70 69 67 64 63 64 65
52 87 89 92 93 92 82 67 69 74 80 77 80 75 75 80 78 77 76 76 78 78 68 69 67 79 78 80 79 74 69 76 65 68 63 68 65 68 68 65 65 64 62 61 65
70 85 88 91 91 86 75 64 74 79 78 79 71 77 71 75 73 75 75 78 75 79 81 73 63 76 77 79 80 75 79 64 68 52 51 63 64 62 62 64 65 64 63 61 68
70 80 88 95 91 80 70 74 77 82 80 75 74 73 75 75 76 75 74 76 77 76 80 76 69 69 75 72 70 72 70 71 68 64 55 53 61 70 69 70 67 70 70 70 70
78 75 91 92 75 79 75 76 60 78 82 79 79 77 74 75 72 74 72 73 77 78 72 75 69 63 68 75 75 73 70 69 59 56 63 60 60 72 73 73 71 71 69 71 69
74 80 90 87 70 74 77 75 77 76 78 77 75 78 78 73 67 73 73 74 75 75 72 74 66 57 62 69 71 67 70 68 67 64 56 54 59 71 71 69 70 68 69 68 68
74 72 80 82 81 72 72 72 72 79 77 78 77 78 75 72 75 70 71 71 74 75 62 68 66 62 57 62 68 63 66 68 64 54 59 62 61 63 64 65 66 67 68 68 68
77 71 70 73 74 72 72 73 71 70 77 79 75 75 73 67 71 70 73 70 72 62 70 70 61 66 67 67 66 66 65 66 63 64 57 62 63 67 67 66 68 67 66 66 66
68 69 77 72 72 70 64 69 70 73 72 72 71 75 76 69 71 68 72 71 69 72 70 70 61 64 61 68 65 62 66 65 65 65 63 63 63 70 68 68 66 65 64 63 63
74 75 69 66 71 69 71 71 71 74 75 77 75 75 72 73 77 77 77 75 74 70 67 66 63 58 54 64 62 56 63 65 64 65 64 58 63 67 63 63 64 63 62 61 61
MSLP
1018.19 1017.88 1017.57 1017.29 1017.07 1016.90 1016.69 1016.47 1016.28 1016.08 1015.89 1015.66 1015.39 1015.09 1014.79 1014.53 1013.83 1013.26 1010.99 1010.40 1010.06 1010.44 1010.44 1008.78 1007.94 1007.27 1006.87 1005.82 1004.92 1004.56 1003.62 1001.74 1000.52 999.93 1000.09 1000.76 1001.14 1001.09 1002.06 1001.16 1001.18 1002.09 1002.73 1003.19 1003.63
1018.18 1017.81 1017.47 1017.19 1016.94 1016.71 1016.51 1016.30 1016.10 1015.89 1015.69 1015.45 1015.19 1014.92 1014.64 1014.44 1012.97 1010.40 1010.37 1010.19 1010.44 1010.60 1009.79 1008.02 1006.87 1006.41 1005.72 1005.09 1004.33 1004.20 1002.99 1001.70 1000.76 1000.52 1000.57 1001.03 1001.86 1001.58 1001.50 1001.03 1003.73 1004.39 1004.91 1005.30 1005.79
1018.22 1017.79 1017.42 1017.08 1016.78 1016.54 1016.29 1016.05 1015.85 1015.60 1015.37 1015.16 1014.92 1014.65 1014.43 1014.13 1011.71 1008.98 1010.17 1010.30 1010.45 1010.45 1008.97 1007.68 1006.73 1005.98 1005.08 1004.24 1003.77 1003.52 1002.75 1001.65 1001.32 1002.17 1002.27 1002.02 1001.84 1002.30 1001.78 1001.05 1002.27 1004.07 1005.33 1005.95 1007.41
1018.41 1017.95 1017.50 1017.08 1016.69 1016.32 1016.04 1015.80 1015.54 1015.29 1015.07 1014.85 1014.59 1014.35 1014.16 1013.19 1009.40 1009.35 1010.22 1010.35 1010.42 1010.04 1008.42 1007.33 1006.59 1005.58 1004.63 1003.63 1003.48 1003.09 1002.85 1002.41 1001.85 1002.35 1003.19 1002.77 1002.58 1002.07 1002.36 1002.97 1003.42 1004.06 1004.86 1005.75 1007.60
1018.51 1018.04 1017.58 1017.10 1016.64 1016.25 1015.89 1015.60 1015.35 1015.09 1014.84 1014.60 1014.34 1014.19 1013.48 1010.81 1008.42 1009.50 1010.13 1010.33 1009.93 1009.10 1007.74 1006.71 1005.87 1005.03 1004.13 1003.41 1003.24 1003.19 1002.98 1002.50 1002.57 1002.55 1003.25 1003.16 1003.09 1002.78 1002.36 1002.70 1003.19 1004.24 1005.21 1006.34 1007.90
1018.64 1018.11 1017.58 1017.09 1016.58 1016.11 1015.69 1015.41 1015.13 1014.86 1014.58 1014.33 1014.09 1014.11 1012.50 1008.86 1008.19 1008.88 1008.97 1009.33 1008.43 1008.03 1007.13 1006.49 1005.50 1005.05 1004.26 1003.95 1003.54 1003.14 1003.23 1002.65 1003.10 1002.90 1003.22 1003.50 1003.65 1003.44 1002.89 1002.94 1003.41 1003.86 1005.27 1007.30 1008.24
1018.67 1018.11 1017.53 1016.99 1016.49 1015.99 1015.46 1015.10 1014.85 1014.58 1014.34 1014.06 1013.88 1013.11 1010.46 1008.19 1008.01 1008.53 1008.75 1008.09 1008.14 1007.67 1006.95 1006.81 1006.37 1005.88 1004.78 1004.16 1004.02 1003.91 1003.70 1003.19 1003.22 1003.13 1003.32 1003.78 1003.96 1003.49 1003.31 1003.73 1004.20 1004.94 1007.13 1008.69 1009.91
1018.64 1018.06 1017.45 1016.89 1016.37 1015.87 1015.31 1014.83 1014.44 1014.19 1014.07 1013.86 1013.82 1012.49 1008.65 1008.15 1007.94 1008.20 1008.05 1007.86 1008.01 1007.87 1007.17 1007.26 1006.95 1005.99 1005.13 1004.55 1004.54 1003.91 1003.57 1002.50 1002.32 1003.20 1003.50 1004.64 1003.68 1004.29 1004.83 1004.97 1005.30 1006.77 1008.58 1010.05 1011.65
1018.61 1017.93 1017.33 1016.70 1016.12 1015.62 1015.09 1014.55 1014.02 1013.84 1013.81 1013.69 1013.11 1010.85 1007.86 1008.87 1008.05 1007.50 1007.60 1007.24 1007.50 1007.60 1007.55 1007.54 1006.77 1005.46 1005.19 1004.40 1003.67 1003.34 1002.31 1002.03 1002.17 1003.30 1003.52 1004.12 1004.17 1005.66 1005.80 1005.68 1006.10 1008.04 1009.49 1011.01 1012.75
1018.61 1017.86 1017.17 1016.50 1015.90 1015.35 1014.83 1014.47 1014.02 1014.02 1013.62 1012.37 1011.01 1009.75 1007.70 1006.93 1007.18 1007.48 1007.54 1007.53 1007.13 1007.18 1007.10 1006.77 1005.76 1005.03 1004.35 1003.51 1002.25 1001.79 1002.20 1002.37 1002.22 1003.16 1004.24 1004.15 1005.84 1006.90 1006.87 1006.32 1007.24 1009.19 1010.97 1012.67 1013.95
1018.49 1017.75 1016.98 1016.26 1015.61 1015.15 1014.34 1013.59 1013.33 1012.10 1010.59 1008.43 1007.88 1007.38 1006.82 1006.91 1007.37 1007.22 1007.28 1007.24 1006.87 1006.70 1005.89 1005.66 1004.87 1003.79 1003.16 1003.42 1003.54 1003.44 1002.87 1002.41 1002.82 1003.69 1004.82 1006.06 1007.57 1008.95 1008.67 1008.77 1009.76 1010.90 1012.43 1013.99 1015.32
1018.39 1017.59 1016.74 1015.96 1015.27 1014.76 1014.24 1010.87 1009.83 1009.53 1008.20 1007.58 1007.55 1007.29 1007.02 1006.79 1006.40 1006.55 1006.92 1006.51 1006.33 1005.49 1005.31 1005.28 1004.27 1003.93 1004.53 1004.54 1004.59 1004.21 1003.74 1003.36 1003.40 1003.91 1005.20 1006.91 1009.23 1011.16 1011.41 1011.62 1011.78 1012.44 1013.12 1014.29 1015.55
1018.18 1017.45 1016.51 1015.61 1014.88 1014.12 1011.50 1009.67 1009.29 1009.23 1007.93 1006.72 1006.71 1006.48 1006.41 1006.50 1005.66 1006.01 1006.51 1005.90 1005.45 1005.06 1004.82 1004.22 1003.88 1004.93 1005.00 1004.70 1004.68 1004.19 1003.77 1003.45 1003.52 1003.91 1005.36 1006.63 1009.13 1011.18 1012.29 1012.61 1013.03 1013.64 1014.48 1015.21 1015.88
1018.08 1017.20 1016.37 1015.53 1014.69 1010.67 1009.93 1009.61 1009.23 1009.32 1007.22 1006.22 1006.17 1005.82 1006.06 1005.80 1005.85 1006.13 1006.11 1005.79 1005.25 1004.54 1004.91 1004.12 1004.79 1004.96 1004.83 1004.44 1004.58 1003.67 1004.06 1004.56 1004.40 1004.67 1004.42 1005.78 1006.79 1009.75 1011.51 1012.47 1013.26 1014.02 1014.69 1015.84 1016.52
1017.84 1016.86 1016.07 1016.14 1013.36 1010.14 1009.52 1009.34 1009.16 1009.33 1005.85 1005.37 1005.04 1004.96 1005.18 1005.25 1005.46 1006.09 1006.22 1005.89 1005.00 1004.85 1005.33 1004.35 1004.87 1004.88 1004.53 1004.62 1005.13 1004.61 1005.05 1004.79 1004.56 1004.54 1004.63 1004.80 1006.42 1007.89 1010.98 1012.21 1013.28 1014.69 1015.44 1016.21 1016.93
1017.43 1016.56 1015.81 1013.92 1012.62 1009.71 1009.53 1009.56 1009.53 1008.11 1004.81 1004.72 1004.69 1005.08 1005.08 1005.08 1005.24 1005.76 1006.10 1006.18 1005.81 1005.67 1005.35 1004.87 1005.69 1005.55 1005.23 1005.65 1005.82 1005.74 1005.52 1005.20 1005.11 1004.72 1004.24 1004.21 1005.34 1008.67 1010.92 1011.21 1013.87 1015.04 1015.94 1016.78 1017.50
1016.89 1015.97 1015.67 1012.78 1009.98 1009.63 1009.53 1009.21 1008.03 1005.81 1004.79 1004.43 1004.36 1004.64 1004.65 1004.82 1005.14 1005.53 1005.65 1005.80 1005.49 1005.37 1004.92 1005.40 1005.48 1005.89 1006.39 1005.72 1005.50 1005.77 1005.52 1004.61 1003.87 1003.60 1003.94 1005.10 1006.24 1008.41 1010.74 1012.41 1014.12 1015.82 1016.98 1017.88 1018.27
1016.15 1015.17 1013.27 1011.61 1010.62 1010.36 1009.77 1008.67 1006.89 1004.85 1004.33 1004.25 1004.18 1004.47 1004.34 1004.45 1004.87 1005.46 1005.71 1005.49 1006.33 1006.10 1005.17 1004.76 1005.16 1005.91 1006.54 1006.28 1005.74 1005.58 1005.66 1005.20 1004.46 1004.05 1003.69 1005.18 1005.93 1009.56 1011.45 1013.42 1015.42 1016.99 1018.06 1018.73 1018.73
1015.41 1012.19 1011.02 1010.62 1010.83 1010.60 1009.31 1007.50 1005.72 1005.07 1004.49 1004.77 1004.65 1004.27 1004.36 1004.39 1005.13 1005.53 1005.69 1005.40 1006.00 1006.82 1006.47 1005.67 1005.71 1006.67 1007.11 1007.15 1006.94 1006.00 1005.85 1005.93 1006.12 1005.80 1005.49 1005.48 1007.34 1009.74 1011.76 1013.26 1015.21 1016.86 1017.95 1018.45 1018.49
1015.58 1011.71 1010.32 1010.72 1010.85 1010.37 1008.95 1007.03 1005.97 1006.10 1006.22 1005.75 1004.68 1004.56 1004.14 1004.55 1005.35 1005.48 1005.42 1006.14 1006.89 1007.59 1007.68 1007.17 1007.01 1006.62 1007.17 1007.69 1007.26 1007.16 1006.77 1006.83 1006.24 1006.08 1005.69 1005.52 1006.44 1008.01 1011.12 1012.82 1014.50 1016.03 1017.17 1017.96 1017.70
1015.37 1010.89 1010.34 1010.47 1010.42 1009.49 1007.83 1006.63 1006.60 1006.37 1006.68 1006.16 1005.19 1004.73 1004.87 1004.33 1004.90 1005.16 1005.62 1007.00 1007.72 1008.11 1008.16 1008.05 1008.23 1007.44 1007.71 1007.08 1006.98 1007.09 1006.93 1007.07 1007.38 1007.80 1007.13 1007.23 1007.60 1009.46 1010.16 1011.89 1013.59 1014.60 1015.77 1016.67 1017.16
1013.70 1010.12 1010.13 1010.26 1009.56 1008.16 1007.27 1007.10 1008.70 1007.21 1006.70 1006.42 1006.13 1005.52 1005.46 1005.51 1005.71 1005.82 1006.11 1007.19 1008.76 1008.68 1008.60 1008.92 1009.12 1008.37 1007.74 1008.22 1008.92 1008.67 1008.28 1008.13 1008.25 1008.61 1008.14 1008.26 1009.14 1010.38 1010.75 1012.08 1013.43 1014.41 1015.99 1016.70 1017.75
1014.14 1010.76 1010.02 1010.10 1008.24 1007.33 1007.41 1007.84 1007.83 1007.14 1006.65 1006.37 1006.29 1006.19 1006.40 1006.29 1006.48 1006.80 1007.46 1009.22 1009.66 1009.57 1009.57 1009.66 1009.44 1009.07 1008.07 1008.49 1009.12 1009.02 1008.82 1009.56 1009.58 1009.89 1009.69 1009.58 1009.77 1011.30 1012.10 1013.21 1014.26 1015.12 1016.09 1017.14 1018.05
1014.69 1010.65 1009.54 1009.60 1008.95 1008.69 1007.70 1007.63 1007.23 1007.54 1007.18 1007.12 1006.41 1006.68 1006.74 1006.68 1007.15 1007.23 1008.07 1009.89 1010.41 1010.27 1011.21 1011.07 1010.37 1010.03 1009.25 1008.66 1009.20 1009.21 1009.36 1009.80 1010.19 1010.37 1009.95 1009.46 1010.17 1011.78 1012.93 1013.87 1015.00 1015.79 1016.66 1017.42 1018.16
1014.35 1012.20 1012.17 1009.34 1009.13 1009.34 1009.00 1008.21 1007.51 1007.14 1007.62 1007.32 1007.00 1006.95 1006.89 1006.91 1006.89 1007.35 1008.06 1009.83 1010.75 1011.48 1011.34 1011.35 1010.81 1010.12 1009.96 1009.99 1010.16 1009.94 1009.87 1010.01 1010.17 1010.34 1010.26 1010.44 1010.43 1011.21 1012.68 1014.13 1015.03 1016.44 1017.53 1018.11 1018.63
1015.41 1013.96 1012.56 1011.50 1010.83 1010.17 1009.43 1008.75 1007.96 1007.32 1007.76 1007.28 1007.32 1006.99 1007.06 1007.21 1007.47 1007.71 1008.01 1009.04 1009.68 1010.86 1011.09 1011.52 1011.20 1010.90 1010.53 1010.08 1010.58 1010.27 1010.18 1010.42 1010.75 1010.81 1011.12 1011.42 1011.64 1012.46 1014.32 1015.39 1016.42 1017.23 1018.12 1018.83 1019.50
1016.49 1015.48 1014.58 1011.80 1010.70 1010.09 1008.91 1008.61 1008.27 1008.15 1008.19 1007.92 1007.43 1007.33 1007.64 1007.81 1008.37 1008.88 1009.28 1009.64 1009.91 1010.30 1010.88 1011.52 1011.48 1011.45 1010.92 1010.68 1010.98 1010.52 1010.12 1010.24 1010.91 1011.60 1011.80 1011.87 1012.83 1014.12 1015.24 1016.16 1017.03 1018.10 1019.06 1019.78 1020.61
Wind_Speed
11 11 10 10 9 9 8 8 8 8 8 9 10 10 11 11 16 11 10 4 2 1 8 12 11 14 15 17 20 11 15 14 18 15 11 7 11 10 3 8 11 11 16 12 13
13 12 11 10 10 9 9 8 8 8 9 9 9 10 10 9 13 16 6 8 4 2 12 13 13 13 14 17 15 16 14 18 14 12 6 6 5 8 10 11 22 19 14 8 7
16 14 13 12 11 10 9 9 9 9 9 9 9 9 9 12 13 10 2 5 6 9 15 10 11 10 17 14 17 16 17 18 3 7 8 7 5 3 13 4 16 7 6 4 8
17 16 14 13 12 11 10 10 10 10 10 10 10 10 9 11 2 10 5 7 6 10 11 9 12 14 15 16 14 18 18 16 13 8 9 12 12 6 6 9 6 8 5 10 13
17 18 16 14 13 11 11 11 10 10 10 10 10 9 9 11 8 10 7 8 11 13 12 10 12 13 12 12 14 10 18 12 10 9 10 15 5 18 9 6 6 1 3 12 14
17 17 17 16 14 12 11 10 10 11 11 10 10 9 9 12 9 7 5 8 9 10 8 9 6 6 11 8 7 6 13 11 10 16 11 10 12 16 15 9 13 12 12 10 12
18 18 17 16 15 14 12 11 11 11 11 11 9 8 11 6 6 7 6 5 1 5 5 1 4 8 3 6 7 6 12 11 13 10 12 4 13 19 9 6 14 6 17 14 22
19 19 18 17 16 15 14 13 12 11 11 11 8 11 3 4 3 6 6 5 4 4 2 1 5 11 11 5 5 11 11 14 16 13 9 5 13 12 6 6 12 22 16 16 20
20 20 19 18 17 15 14 14 9 7 10 8 8 10 7 5 13 5 7 3 6 6 3 4 10 9 6 11 11 9 13 9 12 7 11 12 8 8 6 6 4 10 16 16 15
22 21 20 19 17 15 14 8 3 5 8 10 11 9 8 5 6 3 6 5 5 7 9 11 8 9 11 10 9 6 10 3 5 12 7 5 10 7 9 8 16 13 16 15 15
23 22 22 20 18 14 12 6 8 8 13 13 3 4 8 6 7 10 9 10 8 8 13 9 9 12 6 2 11 13 10 6 9 10 3 8 7 13 14 11 9 9 11 13 13
24 24 23 22 20 13 8 10 7 8 9 9 6 8 2 1 6 7 7 11 8 14 8 7 12 6 6 4 6 10 10 11 7 7 9 11 9 1 8 10 11 7 9 11 12
25 24 24 23 21 6 13 3 6 6 9 9 10 12 12 11 4 11 12 5 10 7 8 13 11 5 5 7 9 11 13 11 11 7 10 12 13 10 7 9 10 10 10 11 10
26 25 24 27 5 4 9 1 6 3 8 13 12 7 7 8 7 2 6 8 7 5 4 4 6 6 9 9 6 14 5 6 10 8 13 18 9 14 13 10 9 9 11 9 12
26 26 24 10 12 9 8 4 2 5 8 16 14 13 11 9 12 11 4 7 10 5 10 6 4 6 10 9 4 6 5 6 8 11 14 18 13 16 16 13 12 9 10 10 8
28 26 23 6 8 7 3 2 6 9 4 10 10 12 13 11 6 10 10 8 6 8 7 4 3 5 10 1 5 8 10 13 13 14 15 21 13 14 11 15 12 9 8 8 8
30 27 14 8 3 2 4 8 8 11 8 11 15 16 16 10 9 10 11 11 8 9 11 7 10 5 7 10 11 10 12 11 13 13 13 5 7 15 9 11 12 8 7 6 5
33 26 7 8 6 6 7 10 9 2 9 4 7 12 14 13 11 8 6 7 4 9 8 6 12 6 4 7 14 11 8 10 15 14 10 13 8 10 12 13 11 6 4 3 3
35 5 6 4 4 5 9 11 8 7 4 4 10 10 12 11 4 9 11 8 7 1 8 4 3 6 1 7 7 13 9 6 10 14 14 15 10 10 12 14 12 9 6 4 1
10 8 5 1 4 6 9 14 5 2 5 6 11 13 14 14 11 9 11 2 4 4 5 5 10 5 2 5 13 10 10 8 8 10 12 11 2 11 12 11 11 9 7 11 7
7 7 7 3 5 8 10 9 8 3 4 8 11 3 13 8 10 13 6 8 2 4 6 6 5 7 8 6 8 4 9 8 5 9 11 11 4 6 6 11 10 10 5 2 3
6 5 5 5 9 9 11 4 4 9 9 8 7 8 4 7 7 11 5 5 2 3 8 5 6 9 14 8 5 9 11 10 8 10 11 9 5 6 7 9 7 8 5 5 4
7 5 5 6 7 7 4 7 6 7 9 8 9 6 4 7 5 8 2 6 3 6 5 5 5 7 8 11 7 6 1 6 6 8 12 11 5 6 9 8 4 3 5 2 4
7 4 6 7 7 10 2 9 7 5 9 7 5 4 8 6 6 4 5 3 3 1 3 2 6 9 11 10 7 6 6 6 7 5 10 12 5 10 6 5 6 3 3 5 6
5 3 5 3 4 6 4 10 9 7 10 10 9 12 10 7 7 9 4 7 6 6 6 5 10 13 10 5 7 10 10 9 10 11 11 10 10 6 6 5 5 7 3 6 7
6 5 2 9 8 8 8 12 12 8 3 11 14 13 11 6 10 8 4 6 7 10 9 5 9 7 12 10 7 11 10 7 10 9 8 6 11 10 10 6 1 2 6 7 9
5 3 6 4 8 10 10 10 7 5 3 10 5 13 10 4 5 6 5 5 5 3 8 6 7 4 10 5 8 10 7 8 6 2 6 6 11 8 6 3 3 6 5 7 9
Wind_Direction
351 343 337 331 324 317 311 307 302 299 298 297 300 301 301 304 292 226 242 38 52 85 312 262 231 233 229 247 246 251 262 261 266 247 257 127 281 92 305 267 33 52 39 54 100
356 349 342 336 329 322 315 308 301 298 295 293 293 293 296 308 271 234 97 89 108 356 244 233 226 220 230 230 230 236 243 251 277 358 323 62 288 3 257 170 34 44 66 49 138
358 351 345 338 332 326 319 311 303 297 293 292 292 293 296 299 260 96 145 182 235 273 263 276 280 246 235 224 226 227 250 266 269 312 298 313 225 227 294 72 98 112 144 61 28
359 354 347 339 332 327 322 315 307 300 296 295 296 297 306 257 302 64 159 200 232 266 260 231 239 227 239 231 240 235 251 262 294 148 259 261 271 227 236 97 86 62 8 96 120
354 353 348 340 332 326 319 314 306 300 293 291 292 304 282 219 79 111 138 166 213 232 251 229 240 233 243 240 235 247 264 237 269 261 216 269 282 284 256 257 196 56 210 71 67
353 349 345 340 333 325 315 306 299 293 287 284 287 299 241 248 96 136 148 180 253 234 230 252 271 313 291 263 233 262 249 262 250 258 231 244 260 265 264 303 306 309 98 48 59
350 347 344 338 332 325 312 302 292 281 274 271 278 282 262 75 128 149 190 255 259 258 201 303 329 239 327 229 254 273 265 246 254 248 254 242 262 252 330 345 297 86 86 49 56
347 344 342 337 332 325 313 306 292 262 252 257 267 265 319 132 173 203 190 183 206 194 24 259 251 280 256 35 231 242 234 252 200 211 217 211 273 52 357 280 270 81 87 68 52
344 342 339 336 332 325 314 308 300 221 223 232 242 228 137 143 208 179 206 173 167 182 184 262 245 277 193 230 214 206 256 212 123 183 244 199 246 32 341 269 176 77 71 65 46
341 339 336 333 330 323 310 287 160 197 219 218 262 258 183 161 126 179 182 229 191 186 205 233 230 234 223 234 252 209 235 170 265 152 222 225 70 16 341 5 73 73 64 59 50
337 336 332 331 327 320 301 202 207 198 222 254 147 292 127 138 173 208 179 210 217 228 249 188 260 226 252 272 348 317 309 288 196 119 273 47 84 37 6 62 67 64 67 64 63
333 332 329 329 324 311 263 262 39 352 280 205 230 265 273 291 181 162 184 219 201 238 188 230 233 34 321 280 262 260 255 254 257 135 228 144 101 67 80 65 60 75 84 86 75
329 328 327 327 323 254 243 306 318 317 252 156 194 199 178 208 208 154 212 222 240 222 211 268 57 81 257 212 240 236 258 256 270 158 219 150 169 167 129 123 115 98 79 67 59
325 326 326 325 291 198 213 141 261 336 263 147 181 199 179 226 175 59 235 288 213 314 212 271 62 235 219 237 262 272 139 299 276 225 232 187 235 170 164 145 135 115 92 59 52
322 323 322 314 318 245 72 293 352 233 258 145 168 131 181 214 119 177 195 231 284 147 251 93 190 224 254 46 313 7 319 279 277 255 252 202 230 130 160 165 146 136 117 116 96
319 321 324 198 227 292 221 210 251 234 215 155 154 190 190 210 196 132 192 233 4 282 250 320 30 286 7 0 288 334 270 248 254 253 251 252 254 152 180 169 159 130 97 70 50
319 317 305 310 339 181 235 227 224 254 111 156 182 186 200 180 167 183 183 196 270 229 193 186 211 116 280 266 202 236 259 256 247 229 254 38 283 77 107 111 150 158 126 76 30
319 316 192 269 313 270 235 226 257 284 184 82 200 192 207 174 200 186 219 204 209 283 293 256 177 183 105 299 317 316 324 298 302 297 315 159 245 96 106 110 116 113 103 81 356
312 215 237 123 274 253 235 228 216 269 351 198 201 209 204 195 272 202 225 260 77 293 312 282 164 127 48 308 289 288 242 343 301 282 265 266 108 128 132 131 143 154 164 167 170
312 275 74 176 175 233 241 253 288 255 314 246 242 215 218 197 195 203 203 127 156 271 294 25 295 127 72 274 240 261 332 283 234 260 271 283 298 74 161 155 157 166 188 197 201
262 254 89 225 215 232 242 233 219 153 264 244 254 266 259 266 189 230 254 111 156 179 242 300 255 279 220 237 332 263 243 223 254 304 306 307 50 27 123 159 168 170 126 72 353
278 258 101 210 219 222 240 220 19 267 206 241 275 294 263 250 247 250 254 75 52 244 234 75 310 296 290 55 326 287 295 315 290 282 279 290 318 7 82 126 157 107 128 63 4
292 299 138 225 246 200 177 248 226 242 242 219 232 245 225 233 244 295 351 58 206 237 336 174 235 282 289 185 191 246 49 293 297 293 276 292 288 76 89 103 106 124 76 339 25
276 253 158 202 272 291 34 257 226 191 267 255 275 222 207 215 222 238 191 134 215 75 353 339 264 272 273 346 338 291 232 255 288 268 275 279 119 144 132 158 148 182 52 357 345
255 78 10 263 169 302 277 291 271 203 225 211 218 227 220 237 236 224 196 124 189 147 202 264 269 271 274 296 276 278 292 282 264 271 274 289 323 51 120 185 78 43 10 334 348
310 336 14 284 286 258 232 251 247 248 243 221 241 218 242 207 240 277 185 195 220 167 237 194 269 287 279 252 250 273 269 256 276 288 279 298 283 80 72 60 94 335 354 334 352
18 229 272 269 235 242 247 229 278 290 180 276 267 250 225 90 43 47 28 10 319 235 206 228 272 266 277 40 288 266 273 245 263 300 300 287 70 114 161 172 342 358 344 348 353